Location: Arbon
(43.0005°N, 0.7472°E)
Time: 17:02:55
(UTC+00:00)

Meteor 1-15 Rocket - Pass Details

Date: 07 August 2020
Orbit: 840 x 907 km, 81.2° (Epoch: 23 September)

Event Time Altitude Azimuth Distance (km) Brightness Sun altitude
Exits shadow 01:22:32 55° 114° (ESE) 1,025 4.5 -27.9°
Maximum altitude 01:22:58 57° 95° (E) 1,008 4.6 -27.9°
Drops below altitude 10° 01:28:28 10° 18° (NNE) 2,486 7.6 -27.5°
Sets 01:30:55 0° 15° (NNE) 3,418 8.6 -27.3°
